TITAN 3C TRANSTAGE DEB, 43512

Orbit data source: Space-Track

TITAN 3C TRANSTAGE DEB, 43512 is space debris in GEO originally from a launch on Sun, 09 Feb 1969 UTC launched from the Air Force Eastern Test Range (AFETR). Debris objects in space refer to the collection of defunct objects orbiting the Earth. Examples of debris include non-operational satellites, rocket bodies, and fragments generated from explosions, collisions, or faulty payload assembly.

Loading next visibility...
Identifier
43512, 1969-013Q
Orbit
GEO
Country
Flag of USUS
Related business
Manufacturer
Martin Marietta
Mission
Spacecraft
Bus & Motor
Unknown
Mass
Unknown
Launch date (UTC)
1969-02-09 (57 years ago)
Launch vehicle
Unknown
Launch site
Air Force Eastern Test Range (AFETR)
Object type
Payload
Rocket body
Debris
Shape & HBR
Unknown
Radar Cross Section
RCS unknown

Expand to show TLE details & history
Last TLE update: 2 months ago

TLE from 2 months ago
0 TITAN 3C TRANSTAGE DEB
1 43512U 69013Q   25201.45851212 -.00000065  00000-0  00000-0 0  9994
2 43512   0.8744 168.3880 0073505  42.8204 148.3417  0.95020198 14247
Epoch: 2025-07-20T11:00Z
TLE epoch observation values (Epoch: 2025-07-20T11:00:15.447Z)
Latitude
-0.19129°
Longitude
-103.54682°
Altitude
37,598.39 km
Speed
3.001 km/s
True Right ascension
23h 59m 59s
True Declination
0° 11' 28"
Sunlit
Object was in daylight at epoch
Visualization orbit readout
Latitude
Unknown
Longitude
Unknown
Altitude
Unknown
Speed
Unknown
Apparent Right ascension
Unknown
Apparent Declination
Unknown
Sunlit
N/A
Visualization observer readout
Local Sidereal Time
13:52:23
Azimuth
Unknown
Elevation
Unknown
Doppler factor
Unknown
Orbital elements
Apogee altitude
37,648.492 km
Perigee altitude
37,005.98 km
Semi-major axis
43,705.373 km
Eccentricity
0.00735
Inclination
0.8744°
RAAN
168.388°
Arg. of periapsis
42.8204°
True anomaly
148.78035°
Mean anomaly
148.3417°
Eccentric anomaly
148.56137°
Mean motion
0.23754 °/min
Orbital period
1,515.52 mins
BSTAR
0
Loading maneuver chart data...
Computing Atmospheric mass density...

Documentation

Showing up to 5 results
|